#timestamp,LO_Frequency,Hit,StdDev 
1456768815.1,286046992.3,N
1456768816.0,286046992.3,N
1456768835.8,286046990.6,Y
1456768855.6,286046993.3,P
1456768875.5,286046997.9,P
1456768895.3,286046998.0,N
1456768915.1,286046995.0,N
1456768935.9,286046997.5,N
1456768955.7,286046994.9,N
1456768975.5,286046995.4,N
1456768995.4,286046995.4,N
1456769015.2,286046996.3,N
1456769035.0,286046996.4,N
1456769035.9,286046996.4,N
1456769055.8,286046996.6,N
1456769075.6,286046996.6,N
1456769095.4,286046993.4,Y
1456769115.3,286046994.2,P
1456769135.1,286046994.8,P
1456769136.0,286046994.8,P
1456769155.8,286046994.1,Y
1456769175.7,286046997.8,P
1456769195.5,286046995.1,P
1456769215.3,286046994.1,P
1456769235.2,286046995.0,Y
1456769255.9,286046999.1,P
1456769275.7,286046998.3,N
1456769295.6,286047000.3,N
1456769315.4,286047005.4,Y
1456769335.2,286047007.1,P
1456769355.1,286047004.7,N
1456769356.0,286047004.7,N
1456769375.8,286047004.9,N
1456769395.6,286047005.5,N
1456769415.4,286047005.8,N
1456769435.3,286047007.9,Y
1456769455.1,286047005.7,P
1456769475.9,286047003.7,P
1456769495.7,286047003.8,P
1456769515.5,286047003.6,Y
1456769535.4,286046998.4,P
1456769555.2,286046997.5,N
1456769575.0,286046993.7,N
1456769575.9,286046993.7,N
1456769595.7,286046997.9,N
1456769615.6,286046997.8,N
1456769635.4,286046997.0,N
1456769655.2,286047004.0,N
1456769675.1,286047002.1,N
1456769676.0,286047002.1,N
1456769695.8,286047000.2,N
1456769715.6,286046998.4,N
1456769735.5,286046996.9,N
1456769755.3,286046999.5,N
1456769775.1,286046999.6,N
1456769795.9,286046997.7,N
1456769815.7,286046997.4,N
1456769835.5,286046997.7,N
1456769855.4,286046995.8,N
1456769875.2,286046995.0,N
1456769895.0,286046995.0,N
1456769895.9,286046995.0,N
1456769915.8,286046996.1,N
1456769935.6,286046995.1,N
1456769955.4,286046996.6,N
1456769975.2,286046997.4,N
1456769995.1,286046997.0,N
1456769996.0,286046997.0,N
1456770015.8,286046996.8,N
1456770035.6,286046997.7,N
1456770055.5,286046993.7,N
1456770075.3,286046993.3,N
1456770095.1,286046995.6,N
1456770115.9,286046997.5,N
1456770135.7,286046996.9,N
1456770155.5,286046995.2,N
1456770175.4,286046996.6,N
1456770195.2,286046999.6,N
1456770215.0,286046997.2,N
1456770215.9,286046997.2,N
1456770235.8,286047000.6,N
1456770255.6,286046999.8,N
1456770275.4,286046998.7,N
1456770295.3,286047000.5,N
1456770315.1,286047001.3,N
1456770316.0,286047001.3,N
1456770335.8,286047000.6,N
1456770355.7,286047001.9,N
1456770375.5,286046998.8,N
1456770395.3,286047000.6,N
1456770415.1,286047004.3,N
1456770435.9,286047000.2,N
1456770455.7,286047000.5,N
1456770475.5,286047002.0,N
1456770495.4,286047002.5,N
1456770515.2,286047000.3,N
1456770535.0,286047000.2,N
1456770535.9,286047000.2,N
1456770555.8,286047000.2,N
1456770575.6,286046997.6,N
1456770595.4,286046993.4,N
1456770615.3,286046993.5,N
1456770635.1,286046994.1,N
1456770636.0,286046994.1,N
1456770655.8,286046993.5,N
1456770675.7,286046992.0,N
1456770695.5,286046986.9,Y
1456770715.3,286046989.4,P
1456770735.2,286046989.4,N
1456770755.9,286046989.9,N
1456770775.7,286046989.1,N
1456770795.6,286046989.9,N
1456770815.4,286046989.9,N
1456770835.2,286046985.7,Y
1456770855.1,286046993.6,P
1456770856.0,286046993.6,P
1456770875.8,286046996.1,P
1456770895.6,286046993.6,Y
1456770915.5,286047001.1,P
1456770935.3,286047000.2,N
1456770955.1,286047002.8,N
1456770975.9,286047003.5,N
1456770995.7,286047004.8,N
1456771015.5,286047007.4,N
1456771035.3,286047007.7,N
1456771055.2,286047009.8,N
1456771075.0,286047009.5,N
1456771075.9,286047009.5,N
1456771095.7,286047011.8,N
1456771115.6,286047011.8,N
1456771135.4,286047017.6,Y
1456771155.2,286047013.0,P
1456771175.1,286047011.6,P
1456771176.0,286047011.6,P
1456771195.8,286047011.4,Y
1456771215.7,286047001.4,P
1456771235.5,286047001.5,N
1456771255.3,286047001.7,N
1456771275.1,286047003.1,N
1456771295.9,286047004.9,N
1456771315.7,286047005.5,N
1456771335.5,286047004.7,N
1456771355.4,286047006.8,N
1456771375.2,286047007.0,N
1456771395.0,286047006.8,N
1456771395.9,286047006.8,N
1456771415.8,286047010.6,Y
1456771435.6,286047003.7,P
1456771455.4,286047004.1,P
1456771475.3,286047003.4,P
1456771495.1,286047004.2,Y
1456771515.8,286047000.3,P
1456771535.7,286046996.7,N
1456771555.5,286046996.8,N
1456771575.3,286046998.5,N
1456771595.2,286046997.3,N
1456771615.9,286046997.7,N
1456771635.7,286046997.6,N
1456771655.6,286046999.1,N
1456771675.4,286046999.4,N
1456771695.2,286046996.5,N
1456771715.0,286046995.4,N
1456771715.9,286046995.4,N
1456771735.8,286046999.6,N
1456771755.6,286046999.0,N
1456771775.4,286046997.4,N
1456771795.3,286046999.3,N
1456771815.1,286046999.0,N
1456771835.8,286046998.4,N
1456771855.7,286046998.5,N
1456771875.5,286046995.4,N
1456771895.3,286046996.7,N
1456771915.2,286046997.6,N
1456771935.9,286046993.8,Y
1456771955.7,286046995.0,P
1456771975.6,286046996.1,N
1456771995.4,286046993.7,P
1456772015.2,286046997.9,N
1456772035.1,286046993.9,Y
1456772036.0,286046993.9,P
1456772055.8,286046997.4,N
1456772075.6,286046995.0,P
1456772095.5,286046994.2,Y
1456772115.3,286047000.6,P
1456772135.1,286047001.2,N
1456772155.9,286047001.0,N
1456772175.7,286047001.1,N
1456772195.5,286046999.6,N
1456772215.4,286046997.4,N
1456772235.2,286046997.3,N
1456772255.0,286046997.8,N
1456772255.9,286046997.8,N
1456772275.8,286046998.7,N
1456772295.6,286046998.2,N
1456772315.4,286047000.5,N
1456772335.2,286046998.9,N
1456772355.1,286047000.9,N
1456772356.0,286047000.9,N
1456772375.8,286047001.0,N
1456772395.6,286046999.3,N
